Location: Unspecified
(0.0000°N, 0.0000°E)
Time: 20:34:34
(UTC+02:00)

Resurs 01 Rocket - Visible Passes

Search period start: 22 July 2017 00:00
Search period end: 01 August 2017 00:00
Orbit: 635 x 644 km, 98.2° (Epoch: 21 July)

Date Brightness Start Highest point End Pass type
(mag) Time Alt. Az. Time Alt. Az. Time Alt. Az.
22 Jul 2.3 22:04:50 48° NNW 22:04:50 48° NNW 22:08:01 10° NNW visible
23 Jul 3.5 22:28:28 28° WNW 22:28:28 28° WNW 22:30:59 10° NNW visible
24 Jul 3.2 21:14:31 18° ENE 21:14:31 18° ENE 21:16:59 10° NNE visible
24 Jul 4.5 22:52:06 14° WNW 22:52:06 14° WNW 22:53:14 10° WNW visible
25 Jul 2.5 21:38:11 34° NE 21:38:11 34° NE 21:41:18 10° N visible
26 Jul 2.4 22:01:48 45° N 22:01:48 45° N 22:04:54 10° N visible
27 Jul 3.4 22:25:27 29° NW 22:25:27 29° NW 22:27:57 10° NNW visible
28 Jul 3.3 21:11:31 16° ENE 21:11:31 16° ENE 21:13:36 10° NE visible
28 Jul 4.4 22:49:06 15° WNW 22:49:06 15° WNW 22:50:20 10° NW visible
29 Jul 2.6 21:35:10 30° NE 21:35:10 30° NE 21:38:04 10° NNE visible
30 Jul 2.4 21:58:48 42° N 21:58:48 42° N 22:01:45 10° N visible
31 Jul 3.3 22:22:28 30° NW 22:22:28 30° NW 22:24:54 10° NNW visible
